"Pseudo-MPEC" for ST26G80

Created 2026 Jul 29 15:35:14 UT using Find_Orb

Click here for an explanation of pseudo-MPECs

 
 Astrometry: 
     ST26G80* C2026 07 19.43083522 58 09.419+00 51 31.97   ~7NF5 19.12GVNEOCPU68
     ST26G80  C2026 07 19.43417622 58 21.852+00 47 19.25   ~7NF5 19.12GVNEOCPU68
     ST26G80  C2026 07 19.46857223 00 27.569+00 04 39.50   ~7NF5 18.58GVNEOCPU74
     ST26G80  C2026 07 19.46977523 00 31.926+00 03 11.76   ~7NF5 18.58GVNEOCPU74
     ST26G80  C2026 07 19.48134923 01 13.306-00 10 54.22   ~7NF5 18.77GVNEOCPU74
     ST26G80  C2026 07 19.48469023 01 25.462-00 14 57.75   ~7NF5 18.77GVNEOCPU74

Station data:
(U68) JPL SynTrack Robotic Telescope, Auberry  (N37.070387 W119.412990)
   US/California.  Observers N. Saini, C. Zhai, R. Trahan, M. Zhan, M. Shao.
   0.28-m f/2.2 Schmidt + CCD.
(U74) JPL SynTrack Robotic Telescope 2, Auberry  (N37.070341 W119.412800)
   US/California.  Observers N. Saini, C. Zhai, R. Trahan, M. Zhan, M. Shao.
   0.36-m f/2.2 Schmidt.

Orbital elements:  ST26G80
   Perigee 2026 Jul 18.413678 +/- 0.0407 TT =  9:55:41.8 (JD 2461239.913678)
Epoch 2026 Jul 19.0 TT = JDT 2461240.5                           AutoNEOCP
q540904.7169 +/- 957000             (J2000 equator)
H   28.90 G 0.15                    Peri.  140.264564 +/- 4.2
                                    Node   165.468855 +/- 0.58
e  30.36772113 +/- 162              Incl.   49.224424 +/- 7
From 6 observations 2026 July 19 (77.6 min); mean residual 0".75
Residuals in arcseconds: 
260719 U68  .11-  .35+    260719 U74  .03-  .38-    260719 U74  1.9-  .40+    
260719 U68  .15+  .36-    260719 U74  .29+  .25+    260719 U74  1.6+  .25-    

Ephemerides (geocentric):
Date (UTC) HH   RA             Dec           delta  r     elong  mag " sig PA
---- --------  ------------   ------------  ------ ------ -----  --- --------
2026 07 29 16  01 13 17.990   -32 30 44.19  .03065 1.0294 116.7 23.6 9572  78
2026 07 29 17  01 13 22.835   -32 31 43.06  .03076 1.0294 116.7 23.6 9578  78
2026 07 29 18  01 13 27.639   -32 32 41.50  .03087 1.0295 116.7 23.6 9584  78
2026 07 29 19  01 13 32.401   -32 33 39.53  .03098 1.0295 116.7 23.6 9590  78
2026 07 29 20  01 13 37.123   -32 34 37.15  .03109 1.0296 116.7 23.6 9597  78
2026 07 29 21  01 13 41.805   -32 35 34.35  .03120 1.0296 116.7 23.6 9603  78
2026 07 29 22  01 13 46.447   -32 36 31.15  .03131 1.0297 116.8 23.6 9609  78
2026 07 29 23  01 13 51.049   -32 37 27.55  .03142 1.0297 116.8 23.6 9615  78
2026 07 30 00  01 13 55.612   -32 38 23.56  .03153 1.0298 116.8 23.7 9621  78
2026 07 30 01  01 14 00.137   -32 39 19.17  .03164 1.0298 116.8 23.7 9627  78
2026 07 30 02  01 14 04.623   -32 40 14.40  .03175 1.0299 116.8 23.7 9633  78
2026 07 30 03  01 14 09.071   -32 41 09.25  .03187 1.0300 116.8 23.7 9639  78
2026 07 30 04  01 14 13.481   -32 42 03.72  .03198 1.0300 116.9 23.7 9645  78
2026 07 30 05  01 14 17.853   -32 42 57.81  .03209 1.0301 116.9 23.7 9650  78
2026 07 30 06  01 14 22.189   -32 43 51.53  .03220 1.0301 116.9 23.7 9656  78
2026 07 30 07  01 14 26.488   -32 44 44.89  .03231 1.0302 116.9 23.7 9662  78
2026 07 30 08  01 14 30.750   -32 45 37.89  .03242 1.0302 116.9 23.7 9668  78
2026 07 30 09  01 14 34.976   -32 46 30.53  .03253 1.0303 116.9 23.7 9674  78
2026 07 30 10  01 14 39.167   -32 47 22.81  .03264 1.0304 116.9 23.7 9679  78
2026 07 30 11  01 14 43.322   -32 48 14.75  .03275 1.0304 117.0 23.7 9685  78
2026 07 30 12  01 14 47.441   -32 49 06.33  .03286 1.0305 117.0 23.7 9691  78
2026 07 30 13  01 14 51.526   -32 49 57.58  .03297 1.0305 117.0 23.7 9696  78
2026 07 30 14  01 14 55.576   -32 50 48.48  .03308 1.0306 117.0 23.8 9702  78
2026 07 30 15  01 14 59.592   -32 51 39.05  .03319 1.0306 117.0 23.8 9708  78
2026 07 30 16  01 15 03.574   -32 52 29.29  .03330 1.0307 117.0 23.8 9713  78
2026 07 30 17  01 15 07.522   -32 53 19.20  .03342 1.0307 117.1 23.8 9719  78
2026 07 30 18  01 15 11.436   -32 54 08.79  .03353 1.0308 117.1 23.8 9724  78
2026 07 30 19  01 15 15.318   -32 54 58.05  .03364 1.0309 117.1 23.8 9730  78
2026 07 30 20  01 15 19.166   -32 55 47.00  .03375 1.0309 117.1 23.8 9735  78
2026 07 30 21  01 15 22.982   -32 56 35.63  .03386 1.0310 117.1 23.8 9741  78
2026 07 30 22  01 15 26.765   -32 57 23.95  .03397 1.0310 117.1 23.8 9746  78
2026 07 30 23  01 15 30.517   -32 58 11.96  .03408 1.0311 117.2 23.8 9752  78
2026 07 31 00  01 15 34.236   -32 58 59.67  .03419 1.0311 117.2 23.8 9757  78
2026 07 31 01  01 15 37.924   -32 59 47.07  .03430 1.0312 117.2 23.8 9762  78
2026 07 31 02  01 15 41.580   -33 00 34.18  .03441 1.0313 117.2 23.8 9768  78
2026 07 31 03  01 15 45.205   -33 01 20.99  .03452 1.0313 117.2 23.8 9773  78
2026 07 31 04  01 15 48.800   -33 02 07.51  .03463 1.0314 117.3 23.8 9778  78
2026 07 31 05  01 15 52.363   -33 02 53.73  .03474 1.0314 117.3 23.9 9784  78
2026 07 31 06  01 15 55.897   -33 03 39.68  .03485 1.0315 117.3 23.9 9789  78
2026 07 31 07  01 15 59.400   -33 04 25.33  .03497 1.0316 117.3 23.9 9794  78
2026 07 31 08  01 16 02.873   -33 05 10.71  .03508 1.0316 117.3 23.9 9799  78
2026 07 31 09  01 16 06.317   -33 05 55.81  .03519 1.0317 117.3 23.9 9805  78
2026 07 31 10  01 16 09.731   -33 06 40.63  .03530 1.0317 117.4 23.9 9810  78
2026 07 31 11  01 16 13.116   -33 07 25.18  .03541 1.0318 117.4 23.9 9815  78
2026 07 31 12  01 16 16.472   -33 08 09.46  .03552 1.0318 117.4 23.9 9820  78
2026 07 31 13  01 16 19.799   -33 08 53.47  .03563 1.0319 117.4 23.9 9825  78
2026 07 31 14  01 16 23.098   -33 09 37.22  .03574 1.0320 117.4 23.9 9830  78
2026 07 31 15  01 16 26.368   -33 10 20.71  .03585 1.0320 117.5 23.9 9835  78